Regional Weather Roundup
Issued by NWS

Home | Current Version | Previous Version | Text Only | Print | Product List | Glossary On
Versions: 1 2 3 4 5 6 7 8 9 10 11 12 13 14 15 16 17 18 19 20 21 22 23 24 25 26 27 28 29 30 31 32 33 34 35 36 37 38 39 40 41 42 43 44 45 46 47 48 49 50
000
ASUS43 KOAX 231910
RWRNE

WEATHER ROUNDUP FOR NEBRASKA
NATIONAL WEATHER SERVICE OMAHA NE
200 PM CDT THU OCT 23 2014

NOTES: SATELLITE DATA IS BEING USED TO AUGMENT CLOUD COVER ABOVE
       12000 FEET.
       "FAIR" INDICATES FEW OR NO CLOUDS BELOW 12,000 FEET WITH NO
       SIGNIFICANT WEATHER AND/OR OBSTRUCTIONS TO VISIBILITY.

  * THESE STATIONS DO NOT REPORT WEATHER SUCH AS RAIN...SNOW OR FOG.

NEZ001>004-019>022-054>056-232000-
NEBRASKA PANHANDLE

CITY           SKY/WX    TMP DP  RH WIND       PRES   REMARKS
SCOTTSBLUFF    CLOUDY    66  39  37 W6        30.05F
ALLIANCE       CLOUDY    68  31  25 W22G30    30.03F
CHADRON        CLOUDY    68  36  30 SW12      29.97F
KIMBALL        PTSUNNY   71  32  23 W17G23    30.09F
SIDNEY         PTSUNNY   68  38  33 SW15G24   30.09F
$$

NEZ057>060-069>072-079>082-232000-
SOUTHWEST NEBRASKA

CITY           SKY/WX    TMP DP  RH WIND       PRES   REMARKS
NORTH PLATTE   PTSUNNY   73  43  33 SW14      30.03F
IMPERIAL       MOSUNNY   74  41  30 SW14G22   30.06F
LEXINGTON      MOSUNNY   68  57  66 SW6       30.06F
MCCOOK         PTSUNNY   71  52  50 VRB6      30.07F
OGALLALA       MOSUNNY   75  43  32 SW9       30.04F
$$

NEZ005>010-023>029-035>040-094-232000-
NORTH CENTRAL NEBRASKA

CITY           SKY/WX    TMP DP  RH WIND       PRES   REMARKS
VALENTINE      MOSUNNY   73  36  25 SW13      29.96F
AINSWORTH      SUNNY     73  40  31 SW13      29.98F
BROKEN BOW     SUNNY     70  55  59 S9        30.03F
O`NEILL        SUNNY     71  42  35 SW13      30.00F
ORD            SUNNY     69  50  50 S10       30.02F
THEDFORD       MOSUNNY   73  45  35 SW13      30.01F
$$

NEZ041-046>049-061>064-073>077-083>087-232000-
SOUTH CENTRAL NEBRASKA

CITY           SKY/WX    TMP DP  RH WIND       PRES   REMARKS
GRAND ISLAND   SUNNY     63  55  75 S8        30.07F
AURORA         SUNNY     64  64 100 SW9       30.06F
HASTINGS       CLOUDY    56  53  90 S6        30.07F FOG
HEBRON         SUNNY     71  57  61 W6        30.06F
HOLDREGE       MOSUNNY   58  57  96 CALM      30.07F
KEARNEY *      MOSUNNY   59  55  88 S9        30.08F
YORK           SUNNY     68  54  60 SW8       30.06F
$$

NEZ011>018-030>034-042>045-232000-
NORTHEAST NEBRASKA

CITY           SKY/WX    TMP DP  RH WIND       PRES   REMARKS
NORFOLK        SUNNY     69  47  45 S13       30.03F
ALBION         SUNNY     68  47  47 SW10      30.03F
BLAIR          SUNNY     70  47  43 SW7       30.04F
COLUMBUS *     SUNNY     64  52  63 SW5       30.07F
FREMONT        SUNNY     69  50  50 SW5       30.04F
TEKAMAH        SUNNY     69  50  50 CALM      30.03F
WAYNE          SUNNY     69  45  40 S9        30.03F
$$

NEZ050>053-065>068-078-088>093-232000-
SOUTHEAST NEBRASKA

CITY           SKY/WX    TMP DP  RH WIND       PRES   REMARKS
LINCOLN        SUNNY     67  56  67 SW6       30.06F
OMAHA EPPLEY   SUNNY     69  52  54 NE3       30.04F
BEATRICE       SUNNY     70  55  57 S5        30.05F
FALLS CITY     SUNNY     72  57  59 SW6       30.04F
NEBRASKA CITY  SUNNY     68  57  67 NW7       30.04F
PLATTSMOUTH    SUNNY     69  54  59 SW3       30.04F
$$

NEZ044-045-051>053-067-232000-
OMAHA AREA

CITY           SKY/WX    TMP DP  RH WIND       PRES   REMARKS
OMAHA EPPLEY   SUNNY     69  52  54 NE3       30.04F
BLAIR          SUNNY     70  47  43 SW7       30.04F
FREMONT        SUNNY     69  50  50 SW5       30.04F
MILLARD        SUNNY     67  56  67 W3        30.04F
OFFUTT AFB     SUNNY     70  59  68 W7        30.03F
PLATTSMOUTH    SUNNY     69  54  59 SW3       30.04F
WAHOO          FAIR      70  51  51 SW3       30.04F
$$



USA.gov is the U.S. government's official web portal to all federal, state and local government web resources and services.